Regional Weather Roundup
Issued by NWS

Home | Current Version | Previous Version | Graphics & Text | Print | Product List | Glossary On
Versions: 1 2 3 4 5 6 7 8 9 10 11 12 13 14 15 16 17 18 19 20 21 22 23 24 25 26 27 28 29 30 31 32 33 34 35 36 37 38 39 40 41 42 43 44 45 46 47 48 49 50
000
ASUS43 KLMK 211410
RWRKY
KENTUCKY REGIONAL WEATHER ROUNDUP
NATIONAL WEATHER SERVICE LOUISVILLE KY
1000 AM EDT MON MAY 21 2018

NOTE "FAIR" INDICATES FEW OR NO CLOUDS BELOW 12,000 FEET
WITH NO SIGNIFICANT WEATHER AND/OR OBSTRUCTIONS TO VISIBILITY.

KYZ001>023-026-027-061>063-070>075-211500-
WESTERN AND SOUTH CENTRAL KENTUCKY

CITY           SKY/WX    TMP DP  RH WIND       PRES   REMARKS
PADUCAH        FAIR      71  68  90 E10       30.06F
HENDERSON      NOT AVBL
OWENSBORO      FAIR      76  67  73 S8        30.12S
HOPKINSVILLE   NOT AVBL
BOWLING GREEN  FAIR      76  68  76 NE3       30.14S
GLASGOW        FAIR      74  65  74 CALM      30.16S
$$

KYZ024-025-028>034-038-045-046-053-211500-
NORTH CENTRAL KENTUCKY

CITY           SKY/WX    TMP DP  RH WIND       PRES   REMARKS
LOUISVILLE/SDF FAIR      77  63  61 S5        30.14S
LOUISVILLE/LOU FAIR      77  67  71 S5        30.15S
FORT KNOX      NOT AVBL
$$

KYZ035>037-039>044-047>052-055>060-089>105-211500-
NORTHEAST KENTUCKY

CITY           SKY/WX    TMP DP  RH WIND       PRES   REMARKS
LEXINGTON      FAIR      74  66  76 SW5       30.17R
COVINGTON      PTSUNNY   73  65  75 SE6       30.15R
FRANKFORT      FAIR      75  66  73 W6        30.15R
$$

KYZ054-064>069-076>088-106>120-211500-
SOUTHEAST KENTUCKY

CITY           SKY/WX    TMP DP  RH WIND       PRES   REMARKS
JACKSON        FAIR      74  67  78 CALM      30.19R
LONDON         FAIR      75  66  73 S7        30.18S
SOMERSET       FAIR      72  64  78 MISG      30.18S
MIDDLESBORO    FAIR      70  67  91 CALM      30.21S
MONTICELLO     FAIR      78  66  66 NE8       30.19R
$$





USA.gov is the U.S. government's official web portal to all federal, state and local government web resources and services.